GFSCGP_prec_cloud_015.txt.gz
Cloud_Cover
0 0 0 0 0 0 0 4 0 4 14 100 5 37 99 75 2 0 3 1 10 0 0 0 0 28 1 5 4 0 0 3 1 76 33 100 21 100 65 0 0 0 0 92
1 0 0 0 0 0 0 0 0 0 2 100 100 90 5 5 5 0 1 1 3 0 0 0 0 0 0 4 5 1 5 2 4 25 5 5 5 4 0 8 9 8 20 33
0 0 4 0 0 0 0 0 0 0 2 100 97 8 0 0 0 0 0 0 0 0 0 0 0 0 2 5 5 5 3 36 5 0 2 1 1 0 0 0 5 6 4 100
0 0 0 0 0 0 0 0 0 0 6 74 84 15 0 1 0 0 0 0 0 0 0 0 0 0 5 43 5 5 13 11 0 0 0 0 0 0 4 0 7 7 59 82
0 0 0 0 0 0 0 0 2 28 5 5 3 1 0 5 0 0 0 0 0 0 0 0 0 5 43 5 5 0 3 0 0 0 0 0 0 0 0 0 0 5 15 84
0 0 0 0 0 0 0 0 0 88 5 3 0 3 1 27 0 0 3 0 0 0 0 5 5 54 10 5 0 1 3 1 0 0 0 0 0 0 0 5 18 2 5 25
0 0 4 0 0 0 0 6 9 20 0 0 2 26 59 2 0 1 3 1 0 0 4 32 35 22 39 5 0 0 0 0 0 0 0 0 0 0 1 4 77 4 40 16
0 0 8 0 0 0 0 0 0 0 2 1 4 1 26 29 2 0 2 0 2 5 5 34 97 100 7 0 0 0 0 0 0 0 0 0 0 27 37 5 13 16 10 2
94 3 0 2 4 0 0 2 0 2 5 8 29 26 95 94 5 3 5 100 36 5 77 100 99 7 0 0 0 0 0 0 0 0 0 0 7 19 33 0 0 85 1 86
58 98 2 25 4 1 4 2 0 0 2 31 68 99 100 15 5 6 5 58 15 92 100 93 4 5 1 0 0 0 0 0 0 0 0 18 100 37 59 34 51 4 61 57
59 83 58 94 71 0 0 44 0 0 1 7 91 100 48 94 37 62 44 99 100 100 98 88 96 8 4 0 0 0 0 0 0 0 2 100 100 48 84 67 99 100 88 98
70 100 82 70 100 2 0 5 1 0 0 12 99 100 88 94 83 99 100 100 100 100 100 75 5 43 1 0 0 0 0 0 0 0 45 100 100 39 12 51 97 82 96 88
70 99 100 100 95 29 15 4 10 2 7 91 43 100 7 70 66 98 100 100 100 100 100 46 98 2 0 0 0 0 0 0 0 5 64 100 99 22 21 98 100 20 44 99
100 94 100 100 66 80 83 82 14 9 5 82 100 56 5 71 100 100 100 23 99 100 94 36 22 0 0 0 0 0 0 0 0 2 34 100 78 15 48 100 92 4 7 8
100 8 92 100 100 100 100 100 85 80 68 10 86 20 85 88 100 100 100 97 100 100 100 99 2 0 0 0 0 0 0 0 0 0 25 100 100 80 96 100 16 0 12 70
73 70 74 100 100 100 100 100 100 100 34 21 42 4 95 100 100 100 100 82 100 100 100 31 0 0 0 0 0 0 0 0 0 0 34 97 31 24 94 75 22 4 84 100
95 100 100 100 100 98 100 100 99 100 33 36 65 1 95 100 86 87 100 100 100 100 98 13 4 0 0 0 0 0 0 0 0 0 63 27 0 0 5 35 91 100 100 100
100 100 100 100 100 100 100 100 100 100 99 38 28 81 46 17 100 100 100 99 100 100 100 2 5 0 0 0 0 0 0 0 0 4 31 8 3 2 2 58 100 100 76 95
98 100 100 100 100 100 100 97 100 100 15 4 1 5 81 100 100 97 100 100 100 100 99 5 5 0 0 4 0 0 0 0 0 0 15 4 18 41 92 100 93 97 32 48
83 100 100 100 100 100 100 86 28 18 28 4 0 4 90 100 100 100 100 100 100 100 99 5 5 3 1 5 0 0 0 0 0 0 20 19 48 77 54 42 63 12 68 83
54 100 100 100 100 100 100 15 6 2 87 24 0 6 75 9 42 99 100 100 100 100 22 5 5 5 5 5 0 0 0 0 0 0 5 11 13 18 12 2 5 14 54 73
100 98 100 100 100 100 100 100 23 81 74 15 13 31 84 76 100 100 100 100 100 98 5 6 5 7 5 17 1 0 0 0 0 0 0 13 2 30 34 5 5 5 9 78
100 100 100 100 100 100 100 100 82 100 100 13 0 83 100 100 100 100 100 100 100 12 13 24 5 27 5 37 2 0 0 0 0 0 0 0 0 3 0 1 5 5 7 56
100 100 100 100 100 100 100 100 57 96 64 12 1 100 100 100 100 100 100 98 100 8 5 5 45 63 15 5 5 0 0 0 0 0 0 0 0 0 0 0 0 5 5 8
100 100 100 100 100 100 98 100 100 98 63 47 12 100 100 100 100 100 91 29 100 6 5 45 100 94 64 5 5 0 0 0 0 0 0 0 0 0 1 0 0 0 0 4
100 100 100 100 93 100 100 100 78 32 67 4 1 87 100 100 100 100 10 45 75 7 27 93 100 100 32 9 5 3 0 0 0 0 0 0 0 0 0 0 0 63 4 0

GFSCGP_prec_cloud_021.txt.gz
Cloud_Cover
0 0 0 0 0 0 0 0 0 3 86 100 5 0 0 0 2 5 5 5 5 5 9 1 0 0 0 0 0 0 0 0 0 0 4 4 5 1 3 10 65 52 1 0
0 0 0 0 0 0 0 0 0 0 0 28 48 0 0 0 0 0 0 0 0 0 0 0 0 0 5 1 0 0 0 0 0 4 1 9 3 3 7 100 54 0 0 0
0 0 0 0 0 0 0 0 0 0 0 0 0 0 0 0 0 0 0 0 0 0 0 0 1 3 1 0 0 0 0 0 3 3 5 10 4 26 32 16 3 0 0 0
8 0 0 0 0 0 0 0 0 0 0 0 0 0 0 0 0 0 0 0 0 0 0 0 0 0 0 0 0 0 0 5 4 4 4 3 55 38 0 0 0 0 0 0
75 42 1 0 0 0 0 0 0 0 0 0 0 0 0 0 0 0 0 0 0 0 0 0 0 0 0 0 0 0 5 4 5 7 19 75 5 0 0 0 0 0 0 0
90 68 16 5 1 0 0 0 0 0 0 2 0 0 0 0 0 0 0 0 0 0 0 0 0 0 0 0 0 3 17 82 72 64 66 5 0 0 0 0 0 0 0 0
22 59 5 5 5 2 0 0 0 0 0 0 0 0 0 3 0 0 0 0 0 0 0 0 0 0 0 3 15 17 44 84 99 75 5 1 0 0 0 0 0 0 0 0
14 17 4 87 55 78 10 4 2 0 0 0 0 0 0 0 0 0 0 0 0 0 0 0 0 0 1 100 71 90 99 100 48 6 1 0 0 0 0 0 0 0 0 0
71 20 86 5 52 91 41 3 2 0 0 0 0 0 0 0 0 0 0 0 0 0 0 0 0 0 96 100 100 100 64 32 5 0 0 0 0 0 0 0 0 0 0 0
46 18 13 100 74 4 94 57 5 0 2 0 0 0 0 0 2 0 0 0 0 0 0 0 2 5 100 100 89 6 79 8 0 0 0 0 0 38 0 0 2 0 0 4
53 8 26 100 99 1 13 73 57 2 0 0 0 0 3 0 100 2 0 0 0 0 1 9 97 94 95 99 100 52 5 0 0 0 0 10 42 81 0 1 5 0 1 5
4 5 38 88 99 12 0 0 13 64 4 2 3 0 95 99 29 4 0 0 0 0 14 31 99 100 100 93 48 7 0 0 0 0 0 99 99 3 8 5 12 0 0 5
22 4 5 100 98 100 2 1 21 30 100 60 41 1 24 70 46 5 0 2 0 36 84 99 100 100 100 84 97 4 0 0 0 39 90 100 100 5 5 8 99 0 0 40
5 34 6 50 100 100 43 14 98 74 6 27 5 77 5 16 92 5 1 0 5 81 79 100 100 100 100 100 62 0 0 0 0 100 100 90 33 2 5 28 24 13 1 94
79 100 98 100 100 78 5 100 98 8 0 0 3 50 2 85 2 0 3 0 5 93 98 100 100 100 100 64 1 0 0 0 3 100 100 100 5 0 0 48 21 92 78 80
100 100 98 100 100 100 5 100 84 2 0 0 6 35 99 85 71 5 0 1 100 100 100 100 100 100 99 5 0 0 0 0 0 100 100 100 97 100 100 100 59 0 69 100
100 100 100 100 100 100 80 38 5 0 0 2 24 26 97 74 100 5 0 40 100 100 100 100 100 100 5 1 0 0 0 0 20 100 100 87 49 14 97 100 98 75 100 100
88 80 81 100 99 100 61 40 0 1 48 70 96 100 76 67 91 28 7 100 100 100 100 85 100 100 10 0 0 0 0 0 0 100 100 5 0 0 68 100 93 88 29 12
100 98 98 100 100 74 95 97 100 100 95 100 100 19 100 98 62 100 14 100 100 100 98 91 100 100 0 0 0 0 0 0 17 100 53 0 0 6 100 100 42 100 100 91
100 100 100 100 100 100 99 100 100 100 78 100 99 4 63 100 100 14 10 100 100 100 100 100 100 100 0 4 0 0 0 0 22 100 8 0 0 60 96 100 6 96 89 65
100 100 100 100 100 100 100 100 96 62 100 100 94 91 100 100 86 8 59 100 100 100 100 100 100 100 0 2 1 0 0 0 12 100 85 0 0 94 22 4 39 100 100 89
100 100 100 100 100 100 100 100 88 100 100 100 91 76 100 49 89 10 56 100 100 100 100 100 100 100 4 5 1 0 0 0 6 16 0 0 0 0 0 3 38 100 84 10
100 100 100 100 100 100 100 100 100 100 100 100 100 100 100 63 72 13 100 100 100 100 100 100 100 100 3 5 4 0 0 0 0 0 34 0 0 0 0 0 3 100 55 60
100 100 100 100 100 100 100 100 100 100 100 92 100 100 76 60 100 1 100 100 100 48 100 100 100 88 5 5 5 0 0 0 0 0 0 0 0 0 1 0 0 88 99 66
100 100 100 100 100 100 100 100 100 100 100 100 100 91 14 36 7 89 100 100 100 100 100 100 100 100 6 5 5 0 0 0 0 0 0 0 0 0 1 5 9 0 5 80
100 100 100 100 100 100 100 100 100 100 100 100 100 61 11 4 8 98 100 100 100 100 100 100 100 99 8 5 5 2 0 0 0 0 0 0 0 0 0 0 0 20 6 2

GFSCGP_prec_cloud_024.txt.gz
Cloud_Cover
0 0 0 21 90 4 0 0 0 0 14 100 94 1 48 5 5 5 6 47 56 5 1 5 0 0 1 4 1 5 67 61 14 0 4 4 1 0 0 0 0 100 10 21
1 0 0 0 0 0 0 0 0 3 5 15 4 0 0 6 3 5 99 49 36 2 3 0 0 0 3 5 5 9 48 96 5 2 5 5 1 2 0 0 38 60 27 1
5 2 0 0 0 0 0 0 0 0 4 4 0 0 0 0 0 1 1 64 17 40 0 0 0 0 4 5 5 5 0 0 0 0 36 12 5 0 5 10 26 0 3 0
4 25 4 0 0 0 0 0 0 0 0 0 0 0 0 0 0 0 0 0 0 0 0 0 0 0 5 0 0 17 10 11 0 3 8 12 4 6 5 4 0 1 7 0
0 64 67 5 1 0 0 0 0 0 0 0 0 0 0 0 0 0 0 0 0 0 0 0 0 0 0 2 7 14 0 0 0 5 5 15 37 5 4 0 0 0 0 0
0 2 99 83 52 5 2 0 0 0 0 0 0 0 0 0 0 0 0 0 0 0 0 0 0 0 1 0 9 0 0 2 62 6 68 31 5 1 0 3 8 0 0 0
72 100 29 100 83 5 1 0 0 0 0 0 0 0 0 0 0 0 0 0 0 0 0 0 0 0 0 7 4 0 8 58 60 99 19 24 2 0 0 0 1 0 0 0
99 35 14 100 100 99 49 4 2 0 0 0 0 0 0 22 0 0 0 0 0 0 0 0 0 0 9 7 3 5 87 100 100 57 4 0 0 0 0 0 0 0 0 0
10 5 27 5 100 100 96 10 4 1 0 0 0 0 0 0 0 0 0 0 0 0 0 0 0 0 0 0 10 100 100 83 20 1 0 0 0 0 0 0 0 0 0 0
2 0 1 100 51 99 100 94 51 0 0 0 0 0 0 0 0 0 0 0 0 0 0 0 0 0 4 4 98 100 72 18 11 0 0 0 0 0 0 0 0 0 0 0
5 4 0 4 16 12 100 76 54 31 1 0 0 0 0 0 0 0 0 2 0 0 0 0 0 14 28 100 100 100 65 5 0 0 0 0 0 0 0 0 0 0 0 0
32 6 5 0 22 94 100 12 43 5 5 5 0 1 5 1 0 0 0 0 0 0 0 3 56 100 100 100 100 10 5 0 0 0 0 0 0 0 0 0 0 0 0 0
50 44 5 0 4 99 100 23 0 1 5 5 0 84 5 0 2 5 0 0 0 0 0 40 42 100 100 100 62 15 3 0 0 0 0 58 78 0 4 0 0 0 0 0
89 71 88 31 2 49 98 89 4 0 0 5 4 99 7 50 27 10 1 0 0 0 7 58 97 100 100 100 100 17 0 0 0 0 13 53 31 3 0 4 2 0 0 86
100 100 73 95 94 78 89 73 52 5 2 0 61 99 88 100 5 5 77 0 0 0 46 100 99 100 100 100 56 1 0 0 0 18 57 93 100 2 0 0 0 0 87 100
100 99 83 71 49 5 100 93 68 5 0 3 84 100 97 10 0 5 23 1 0 5 100 100 100 100 100 100 22 0 0 0 0 100 100 93 100 12 44 0 33 65 43 100
54 99 100 100 100 37 94 100 4 5 5 0 36 100 99 44 22 51 46 1 5 9 100 100 100 100 100 95 4 0 0 0 36 100 100 80 0 0 12 0 0 16 100 100
100 100 64 94 100 100 98 36 5 62 31 3 35 48 5 58 100 95 87 61 35 99 100 100 98 67 100 93 3 0 0 0 35 100 78 0 0 2 8 85 84 64 84 61
100 100 79 94 100 90 8 67 94 99 5 1 13 4 2 99 75 100 100 98 94 100 99 92 96 100 100 76 0 0 0 0 0 89 0 0 0 0 20 41 12 16 46 1
100 100 100 100 100 85 99 100 100 100 50 2 40 21 5 86 11 100 100 100 100 100 100 100 100 100 100 64 0 0 1 0 0 16 11 10 0 0 3 100 51 8 27 53
100 100 63 100 100 100 100 100 100 91 66 80 39 6 24 5 56 100 100 100 100 100 96 100 100 100 100 10 0 0 1 0 0 2 81 0 0 0 0 5 16 33 5 13
100 100 100 100 100 100 100 100 100 100 100 100 97 14 19 68 100 100 100 100 100 100 30 100 100 100 100 77 0 2 2 0 0 43 1 0 0 0 4 51 95 23 29 79
100 100 100 100 100 100 100 100 100 100 100 100 100 100 88 100 100 100 100 100 100 100 100 100 100 100 100 92 0 5 4 0 0 0 0 0 0 0 0 8 5 10 5 22
100 100 100 100 100 100 100 100 100 100 100 100 100 100 100 100 100 100 94 92 10 100 100 94 100 100 100 97 5 5 4 0 0 0 0 0 0 0 0 5 94 7 18 25
100 100 100 100 100 100 100 100 100 100 100 100 100 100 100 100 100 100 84 60 66 99 100 100 100 100 97 24 5 5 5 1 0 0 0 0 0 0 0 0 29 5 5 6
100 100 100 100 100 100 100 100 100 100 100 100 100 100 100 100 100 82 2 39 84 100 100 100 100 100 100 91 27 5 44 5 0 0 0 0 0 0 0 0 0 2 5 93

GFSCGP_prec_cloud_027.txt.gz
Cloud_Cover
0 0 15 88 91 89 25 5 5 22 50 100 13 0 4 3 5 0 0 0 5 15 9 72 100 46 5 5 5 0 0 3 5 5 5 13 5 14 19 13 90 5 5 100
0 0 2 57 20 0 0 49 87 100 94 100 100 2 0 0 0 0 4 0 34 53 13 47 15 7 5 16 86 1 7 5 5 5 5 3 5 9 4 16 57 6 100 100
0 0 45 16 0 0 0 0 91 10 100 92 10 0 5 32 3 7 0 4 5 45 100 100 88 34 4 5 0 4 14 5 4 1 1 0 3 0 5 15 17 5 5 45
2 0 0 5 5 0 0 0 5 0 24 33 22 0 0 75 2 0 4 4 4 4 5 17 28 0 1 0 0 3 12 25 8 0 0 0 0 3 1 2 1 13 21 0
0 0 0 0 24 96 2 0 0 0 0 0 0 0 0 0 0 0 0 0 0 0 0 0 0 0 0 0 3 39 40 12 0 0 0 0 5 4 0 76 92 21 0 0
0 0 1 0 8 91 78 0 0 0 0 0 0 0 0 0 0 0 0 0 0 0 0 0 0 0 1 57 96 68 34 16 0 0 4 3 4 2 4 13 27 12 1 0
94 23 0 0 2 58 100 53 2 0 0 0 0 0 0 0 0 0 0 0 0 0 0 0 0 6 66 100 88 53 5 6 1 5 5 5 3 0 0 0 0 5 3 0
100 23 78 97 51 4 91 96 39 0 0 0 0 0 0 0 0 0 0 0 0 0 0 0 8 49 87 92 41 9 0 25 48 21 8 0 0 0 3 2 2 0 0 2
100 100 98 100 100 33 6 63 100 17 0 0 0 0 0 0 0 0 0 0 0 0 0 19 60 72 94 23 1 2 27 56 4 1 3 0 0 0 0 0 0 0 0 0
100 100 100 100 86 99 5 15 97 65 2 0 0 0 0 0 0 0 0 0 0 0 31 77 71 65 44 1 0 0 14 5 15 2 0 0 0 0 0 0 0 0 0 0
100 98 100 100 11 25 77 9 41 88 5 0 0 0 0 57 0 0 0 0 0 0 50 68 66 30 19 47 60 96 17 6 1 0 0 0 0 0 0 0 0 0 0 0
68 100 100 100 5 66 100 21 95 5 4 0 0 0 0 86 0 0 0 0 0 0 34 53 40 17 99 96 100 94 5 0 2 0 0 0 0 0 0 0 0 0 0 0
18 6 5 100 10 4 56 5 5 5 4 0 0 0 10 9 2 0 0 0 0 0 30 28 13 8 100 90 100 18 44 78 0 0 0 0 0 0 0 0 0 5 0 0
15 7 5 28 5 76 56 63 41 4 17 0 0 26 100 1 0 2 0 0 0 0 9 7 0 36 100 100 42 24 72 1 0 0 0 0 0 0 0 0 0 5 4 0
99 96 88 100 82 69 42 6 69 30 5 0 2 84 100 30 7 5 0 1 4 4 4 5 16 29 100 32 5 53 44 0 0 0 0 0 84 6 0 0 3 5 0 8
86 89 98 94 94 100 100 5 5 5 5 5 1 100 93 100 88 5 0 5 4 3 5 5 43 100 99 100 15 98 4 0 0 0 76 71 100 5 0 0 0 0 5 93
95 92 57 81 100 100 27 4 4 2 5 5 3 100 100 100 38 2 3 24 5 7 5 5 5 100 100 93 6 88 4 0 0 44 100 66 0 0 12 10 9 0 49 96
100 98 100 100 95 81 3 2 3 4 0 2 35 97 79 76 58 5 2 65 15 76 69 5 6 27 100 10 54 72 0 0 20 100 56 0 0 0 0 4 5 4 9 100
100 99 100 100 100 100 34 90 100 95 1 8 79 64 99 17 5 14 32 84 52 99 98 54 5 26 66 89 85 5 0 0 39 72 0 0 0 0 0 4 5 5 5 1
100 100 100 100 100 100 100 100 100 100 69 100 100 95 67 5 5 96 74 99 100 100 7 87 4 28 100 100 61 1 0 0 0 0 16 10 0 0 0 5 7 11 5 4
100 100 98 100 100 98 100 100 100 100 30 100 92 90 12 4 28 99 100 100 100 100 61 100 5 98 100 98 100 0 0 0 0 15 95 0 0 0 0 77 9 5 5 17
100 100 100 100 100 100 100 100 100 100 100 99 76 77 0 54 100 100 100 100 100 96 100 82 80 100 100 100 100 0 0 0 0 12 1 0 0 5 5 74 5 5 22 31
100 100 100 100 100 100 100 100 100 100 100 100 100 86 19 100 100 100 100 100 100 100 100 66 88 98 100 100 100 0 0 0 0 0 0 0 0 0 14 84 7 24 20 34
100 100 100 100 100 100 100 100 100 96 98 100 100 100 90 100 100 100 100 100 100 100 100 50 89 97 100 100 100 0 2 0 0 0 0 0 0 0 2 91 5 18 27 76
100 100 100 100 100 100 100 100 100 96 100 100 100 100 80 100 100 100 100 100 100 100 100 100 100 100 100 100 7 5 5 0 0 0 0 0 0 0 1 70 51 1 63 90
100 100 100 100 100 100 100 100 100 100 100 100 100 100 91 71 100 100 100 100 92 100 100 100 100 100 100 100 96 27 5 1 0 0 0 0 0 0 0 2 5 5 21 100

GFSCGP_prec_cloud_030.txt.gz
Cloud_Cover
0 0 0 0 2 3 100 24 5 100 100 100 16 0 63 32 2 0 0 0 5 5 12 12 5 5 0 0 0 0 5 4 5 10 13 31 5 72 100 100 44 20 6 70
0 0 0 0 0 0 0 85 26 76 92 11 37 0 5 0 0 5 5 4 0 5 28 8 35 2 5 0 0 0 1 5 7 95 10 0 20 99 70 42 52 14 49 33
7 0 0 0 2 2 0 0 36 100 100 86 80 0 0 0 0 23 5 5 28 86 19 5 5 4 0 3 2 4 4 0 6 9 7 37 18 63 63 79 62 50 12 3
77 4 2 10 0 5 5 0 0 1 46 48 51 0 5 47 5 3 18 87 100 94 98 19 5 46 96 8 1 0 0 0 4 0 2 1 16 22 15 23 23 28 2 18
5 0 0 98 5 90 46 5 5 1 0 0 0 0 4 98 99 100 100 100 100 74 68 90 100 100 100 1 0 0 11 30 10 0 0 0 0 0 0 0 4 16 45 1
33 7 74 1 0 3 0 0 3 77 6 0 0 0 0 18 66 95 87 100 100 100 62 78 2 19 0 14 20 96 53 55 3 0 0 0 0 2 5 4 0 81 21 2
63 63 33 100 4 0 0 5 0 3 5 0 0 0 0 46 2 0 0 10 5 0 0 0 0 0 87 56 98 100 37 33 0 0 0 3 5 42 0 0 2 10 25 6
95 99 5 100 57 0 5 24 0 0 0 0 0 0 0 0 0 0 0 0 0 0 0 0 0 42 57 99 100 65 20 13 0 1 5 24 1 0 22 31 1 6 2 0
100 100 100 92 51 5 24 97 0 0 0 5 0 0 0 0 0 0 0 0 0 0 0 1 100 100 100 100 60 8 0 0 1 5 1 3 15 42 1 1 0 0 0 0
100 100 100 100 100 91 47 11 24 17 0 2 0 0 0 0 0 0 0 0 0 0 30 98 100 100 90 66 17 0 0 0 1 5 11 0 0 0 0 0 0 0 0 0
100 100 100 100 100 100 89 100 78 1 0 0 0 0 0 0 0 0 0 0 0 0 93 100 100 98 44 30 14 48 5 5 5 5 0 0 0 0 0 0 0 0 0 0
100 100 100 100 91 24 27 12 90 30 0 0 0 0 0 2 0 0 0 0 17 82 100 100 100 90 33 25 100 94 37 5 5 32 2 0 0 0 0 0 0 0 0 0
100 100 99 100 100 37 1 0 5 5 5 0 0 0 0 29 0 0 0 0 29 100 100 100 100 72 16 80 33 26 37 21 87 5 0 0 0 0 0 0 5 4 0 0
37 79 100 100 70 6 5 2 5 48 23 0 0 13 5 88 0 0 0 0 9 100 100 100 100 62 21 44 64 6 5 18 5 0 0 0 0 0 0 0 2 2 3 12
5 99 23 24 23 26 5 5 5 16 50 60 4 24 14 89 0 0 0 0 9 94 100 100 100 51 31 15 85 5 5 49 3 0 0 0 0 0 0 0 0 0 5 1
63 74 54 100 35 5 5 5 5 5 5 60 54 27 100 92 3 0 1 0 2 40 76 88 71 16 77 50 16 17 5 3 5 0 0 0 0 0 0 0 0 0 0 84
100 100 100 100 9 28 5 0 2 0 1 1 13 85 100 93 38 100 4 5 0 4 1 5 5 2 28 9 31 5 5 4 4 0 0 0 0 0 0 5 0 0 33 100
100 91 99 100 58 70 2 4 4 3 0 0 0 100 100 56 93 92 0 5 0 5 5 5 2 34 4 8 5 3 7 3 0 0 0 0 0 0 0 8 5 4 82 100
100 100 100 100 100 92 98 72 90 99 6 0 0 100 100 98 26 4 6 5 5 5 30 18 7 18 2 5 9 98 9 0 0 0 0 0 0 0 0 4 6 5 32 24
100 100 100 100 100 100 100 100 100 100 97 26 81 100 100 73 98 10 48 94 6 7 5 5 5 5 1 46 100 98 0 0 0 0 8 25 0 0 0 5 19 5 4 5
100 100 100 100 100 100 100 100 100 100 36 81 100 100 100 90 69 13 100 56 18 6 47 5 10 5 5 82 100 100 0 0 0 2 0 15 0 0 0 17 5 5 5 10
100 100 100 100 100 100 100 100 100 100 99 100 100 100 100 98 92 84 16 5 36 100 100 100 63 5 6 100 100 100 0 0 0 25 21 0 0 2 5 5 6 6 11 25
100 100 100 100 100 100 100 100 100 100 100 100 100 100 97 9 100 10 79 94 100 100 100 100 100 5 33 100 100 66 0 0 0 0 73 0 0 0 10 27 6 38 56 40
100 100 100 100 100 100 100 100 100 100 100 100 89 100 84 100 22 92 100 100 100 100 100 100 97 5 67 100 100 1 0 0 0 2 100 1 0 0 5 5 4 31 42 43
100 100 100 100 100 100 100 100 100 100 100 100 100 100 60 95 100 100 100 100 100 100 100 100 100 30 14 100 74 0 0 0 0 0 51 1 0 0 27 22 10 11 16 7
100 100 100 100 100 100 100 100 100 100 100 100 100 100 94 98 100 100 100 100 100 100 100 95 78 29 55 100 100 16 0 0 0 0 2 0 0 0 5 4 3 12 82 100

GFSCGP_prec_cloud_033.txt.gz
Cloud_Cover
0 0 0 6 5 3 0 2 5 30 18 100 80 4 96 79 32 3 2 5 5 5 17 35 100 100 23 5 5 5 50 5 4 0 0 3 31 5 23 22 70 10 15 18
0 0 0 0 0 0 0 0 0 9 33 27 5 5 4 82 5 0 0 5 5 5 91 96 61 8 5 5 6 10 3 4 10 4 2 5 3 32 69 94 38 39 45 92
5 0 0 0 0 0 4 5 4 0 16 5 0 0 0 4 5 4 0 4 36 100 98 38 5 5 5 5 0 1 24 33 5 5 1 0 27 93 99 85 100 100 95 76
1 2 2 0 4 1 87 63 33 4 3 1 0 0 0 11 33 29 100 86 99 100 98 5 0 0 0 0 6 28 47 32 3 0 0 0 0 7 8 94 100 100 78 54
0 3 10 98 100 5 5 99 98 100 43 5 0 3 0 0 5 99 100 100 100 88 40 5 5 0 0 28 100 95 41 5 5 0 0 0 0 0 0 14 98 100 74 60
2 4 7 37 94 97 40 3 4 100 100 68 0 3 0 0 0 2 100 98 84 89 13 6 5 21 100 100 100 97 42 0 0 0 0 0 0 0 0 32 48 44 36 24
14 6 31 94 98 100 55 100 5 16 95 5 0 0 0 0 0 0 1 87 100 74 5 0 23 100 100 56 12 7 5 0 0 0 0 0 0 0 9 24 4 26 14 7
100 91 99 99 23 57 11 5 85 2 2 0 0 0 0 0 0 0 0 0 0 0 0 0 0 3 9 0 20 100 2 9 0 0 0 0 0 0 0 0 0 0 0 0
100 99 89 100 100 100 100 99 1 5 0 0 0 0 0 0 0 0 0 0 0 0 0 0 0 0 0 81 100 16 3 18 4 0 0 0 0 5 5 13 0 0 0 0
100 100 94 100 98 100 100 100 81 96 4 0 0 0 0 1 1 0 0 0 0 0 0 0 1 27 100 100 65 45 16 2 0 0 0 4 6 14 4 0 0 0 0 0
100 100 97 100 100 100 100 100 87 97 2 4 2 0 5 3 29 0 0 0 0 0 0 59 100 100 100 64 52 43 6 0 0 0 1 5 5 5 0 0 0 0 0 0
100 100 100 88 100 100 100 100 98 63 6 2 2 0 0 1 88 0 0 0 0 83 100 100 100 100 97 53 41 18 0 5 5 5 5 64 5 0 0 0 0 0 0 0
77 91 100 100 100 100 100 100 100 7 4 77 35 2 0 15 4 0 0 0 0 20 100 100 100 100 98 52 13 0 5 5 5 8 3 4 0 0 0 0 0 0 0 0
68 81 69 100 100 100 100 100 25 5 30 38 13 1 0 69 0 0 0 0 0 1 100 100 100 100 100 62 2 5 27 43 5 53 9 0 0 0 0 0 0 0 0 0
91 92 80 14 26 52 27 100 42 5 5 24 7 1 0 99 0 0 0 0 0 0 85 100 100 100 100 90 30 79 29 5 2 5 0 0 0 0 0 0 0 0 0 0
88 100 100 93 6 5 5 60 4 5 4 5 5 3 6 100 2 0 0 0 0 0 76 100 100 100 98 66 38 5 24 5 0 0 0 0 0 0 0 0 0 0 0 0
100 99 100 91 38 20 6 26 0 0 0 4 4 8 100 97 100 0 0 1 0 0 21 100 96 99 83 60 61 30 5 2 1 5 0 0 0 0 0 0 0 0 26 58
100 94 99 100 99 87 46 9 4 53 5 5 3 5 47 85 95 2 29 6 0 0 3 89 65 73 57 23 26 10 2 0 5 3 0 0 0 0 0 0 0 0 51 100
100 100 100 100 100 100 100 99 90 94 53 5 24 4 95 91 100 100 98 4 0 0 4 46 22 1 4 5 20 11 11 100 5 0 0 0 0 0 0 7 5 2 27 100
100 100 100 100 100 100 100 100 100 99 82 3 39 17 95 98 96 100 33 5 0 5 22 21 4 0 5 75 5 42 100 11 0 0 0 0 0 0 0 5 5 5 0 1
100 100 100 100 100 100 100 100 98 100 60 99 100 71 87 100 99 31 42 5 1 7 5 5 2 0 4 8 87 100 93 2 0 0 3 0 0 0 0 0 5 4 4 5
100 100 100 100 100 100 100 100 100 73 33 100 100 87 15 100 49 99 43 17 2 5 97 6 6 0 0 4 100 100 36 0 0 0 0 0 0 4 5 5 5 5 5 16
100 100 100 100 100 100 100 100 100 100 100 100 100 77 80 93 100 98 13 35 66 77 91 99 79 0 1 10 100 100 5 0 0 28 19 0 0 5 2 4 5 5 32 34
100 100 100 100 100 100 100 100 100 100 100 100 100 100 43 65 43 100 87 26 99 100 21 100 100 100 25 3 99 100 5 0 0 25 90 0 0 2 5 4 4 46 42 34
100 100 100 100 100 100 100 100 100 100 100 100 100 100 100 82 97 80 35 5 100 100 100 100 99 100 100 36 100 100 4 0 0 68 100 0 0 5 3 5 2 8 5 33
100 100 100 100 100 100 100 100 100 100 100 100 96 100 100 100 99 76 35 56 100 100 100 100 100 100 100 84 100 82 1 0 0 27 93 17 0 5 1 3 5 81 77 100

GFSCGP_prec_cloud_036.txt.gz
Cloud_Cover
0 0 0 0 0 0 0 0 0 3 80 25 83 85 100 100 100 86 5 97 46 5 71 5 43 100 40 32 5 5 69 27 72 92 8 4 0 1 5 3 0 6 53 41
0 0 0 0 0 0 0 0 0 2 4 5 4 1 99 100 100 100 5 3 6 5 5 35 94 70 42 5 5 19 41 77 19 7 16 5 3 5 5 0 39 32 40 82
0 0 3 2 0 0 0 0 2 4 60 7 4 0 0 83 52 100 100 44 5 5 94 100 100 34 14 5 12 62 83 100 39 25 9 5 18 5 5 12 97 100 100 100
0 0 0 5 5 1 5 4 5 27 98 9 4 0 0 0 0 4 100 100 99 100 100 100 85 5 5 31 50 95 82 86 10 10 57 69 6 5 0 0 99 100 100 100
0 5 64 33 7 42 33 94 76 100 98 96 10 50 0 0 0 9 99 100 100 100 100 46 58 13 1 4 47 100 76 5 5 41 100 64 0 0 0 1 98 100 100 100
8 49 100 90 99 74 100 100 100 100 100 100 24 90 0 0 0 0 0 68 98 100 100 51 14 5 56 13 13 19 16 50 87 57 5 3 0 0 0 31 100 91 95 85
100 89 99 100 100 100 100 100 100 100 100 92 80 100 0 0 0 0 0 0 0 3 73 6 49 42 100 95 86 98 78 67 7 2 0 0 0 0 8 26 15 69 74 76
44 43 96 100 100 100 100 98 100 100 100 100 96 100 0 0 0 0 0 0 0 0 0 8 83 99 100 100 100 100 100 14 0 0 0 2 14 2 10 22 43 57 95 82
99 100 100 100 94 99 58 100 42 100 100 100 84 86 0 0 0 0 0 0 0 0 0 0 4 0 4 4 3 24 0 0 0 2 16 30 26 27 30 48 6 16 47 18
100 100 100 68 82 93 100 98 100 90 92 100 100 27 0 0 0 1 0 0 0 0 0 0 0 0 0 0 0 3 4 9 26 36 34 38 64 36 22 5 5 0 0 1
100 99 97 100 100 99 97 100 100 100 63 100 100 1 1 2 0 0 1 0 0 0 0 4 8 40 97 0 6 32 29 26 37 46 49 36 36 1 1 4 0 0 1 12
99 100 93 97 98 100 100 100 100 100 52 100 100 100 36 0 1 44 5 0 0 0 84 100 100 100 13 10 15 30 31 27 44 41 39 41 18 4 4 0 0 1 1 0
90 64 99 99 80 100 100 100 100 100 100 93 100 100 36 2 0 40 0 0 0 0 72 100 100 100 99 56 36 36 29 26 7 7 4 3 45 2 1 3 6 7 0 0
48 47 100 99 97 95 100 100 100 100 100 100 100 100 94 5 6 4 0 0 0 0 1 100 100 100 100 99 69 61 39 2 0 82 5 8 12 0 1 2 3 2 2 2
100 100 100 100 100 88 18 72 95 100 100 100 100 100 100 100 66 9 0 0 0 0 32 63 100 100 100 100 94 41 15 4 14 5 0 0 0 0 7 0 18 28 29 48
99 86 92 98 100 66 5 5 8 48 100 100 31 2 99 13 98 36 0 0 0 0 4 23 100 100 100 100 49 16 2 5 5 0 0 0 26 27 21 26 46 25 38 88
100 85 55 74 100 100 28 14 5 34 45 43 21 100 100 8 100 34 0 0 0 0 8 19 100 100 100 100 90 15 0 63 23 0 5 8 23 41 49 38 20 23 43 5
100 100 98 100 100 100 99 2 4 5 5 3 1 61 83 55 100 5 0 0 4 0 8 42 100 100 87 100 39 11 8 14 4 2 6 24 72 87 72 87 44 51 6 0
100 100 100 100 100 100 100 100 46 95 28 66 10 18 98 90 95 4 74 3 1 0 85 68 99 100 100 85 33 5 5 5 78 92 57 75 100 46 99 48 39 52 0 9
100 100 100 100 100 100 100 100 100 81 53 14 8 9 7 100 99 99 96 21 12 100 100 100 100 86 52 35 13 5 5 14 97 100 100 100 29 7 39 60 86 90 31 11
100 100 100 100 100 100 100 100 100 100 94 93 86 17 14 100 66 97 87 64 100 100 100 100 64 42 20 2 3 16 100 100 100 100 100 91 8 0 0 11 30 15 50 63
100 100 100 100 100 100 100 100 100 83 22 100 48 97 100 100 91 100 100 99 100 78 100 100 81 39 2 0 7 100 100 100 100 100 58 25 0 24 0 2 5 5 6 16
100 100 100 100 100 100 100 100 100 100 100 49 27 95 100 99 76 100 98 96 100 99 100 71 9 0 0 0 65 100 100 100 88 75 0 0 2 44 44 5 5 64 17 53
100 100 100 100 100 100 100 100 100 100 29 63 100 100 100 100 100 100 94 100 100 35 100 47 4 0 0 0 98 100 100 94 100 4 0 0 4 29 11 9 60 78 80 96
100 100 100 100 100 100 100 100 100 100 100 98 100 100 100 100 100 100 100 89 100 15 100 23 5 0 0 1 100 100 100 41 100 4 0 0 0 14 2 26 28 100 42 70
100 100 100 100 100 100 100 100 100 100 100 100 100 100 100 93 100 100 100 87 18 86 99 98 75 63 75 99 68 100 100 35 98 37 0 2 0 0 37 12 5 94 90 100

GFSCGP_prec_cloud_042.txt.gz
Cloud_Cover
0 0 0 0 0 0 0 0 0 0 0 2 99 78 99 100 100 100 100 100 51 99 100 100 65 92 100 23 89 98 100 97 97 47 46 100 100 100 28 25 6 5 5 1
0 0 0 0 0 0 0 0 0 0 0 0 0 0 5 8 28 92 100 100 100 100 91 100 100 94 19 29 9 99 98 100 79 5 89 100 100 44 5 74 7 32 5 5
0 0 0 0 0 0 3 3 0 0 0 0 0 0 0 0 0 0 0 95 100 100 100 100 90 100 32 85 98 100 100 85 53 27 78 95 5 6 5 12 61 12 5 3
0 0 0 0 0 0 0 0 0 5 5 0 0 0 0 0 0 0 0 0 62 100 100 100 100 20 10 6 57 99 53 36 82 93 8 99 8 5 5 45 66 6 4 4
0 6 40 54 10 100 62 100 98 18 5 76 4 6 0 0 0 0 0 0 0 55 100 100 100 100 100 89 5 3 6 27 100 92 24 92 71 80 38 21 5 5 17 98
89 74 99 95 2 27 5 0 9 80 100 92 0 40 0 0 0 0 0 74 36 0 1 35 85 100 100 100 22 12 15 5 59 98 53 5 6 5 53 5 25 98 100 100
71 46 100 2 9 31 73 5 7 94 100 4 2 95 4 0 0 0 1 5 63 72 90 1 0 2 94 100 100 100 82 100 100 100 100 5 5 4 9 100 100 100 16 100
54 48 55 98 100 94 65 100 100 100 100 100 100 97 16 21 3 0 1 5 53 2 2 0 0 0 0 0 18 100 100 100 52 100 99 44 29 30 100 100 99 5 22 100
87 36 93 100 81 44 12 100 95 100 7 62 2 1 1 0 0 0 0 0 54 5 0 0 0 0 0 0 0 3 5 65 100 100 100 100 100 95 85 60 0 0 25 8
68 56 41 99 37 97 81 65 2 4 100 46 54 26 52 9 13 0 53 86 51 77 0 0 0 0 0 0 0 0 0 0 2 4 5 3 4 3 0 0 0 0 0 39
34 66 89 5 5 98 97 31 97 89 55 94 97 15 100 100 100 7 100 100 100 98 0 2 12 45 0 0 0 0 0 0 0 68 67 10 0 0 0 6 4 84 44 2
92 17 6 100 8 88 98 91 93 99 99 100 100 24 100 84 63 100 100 23 41 98 4 9 100 6 0 0 0 0 3 93 100 100 10 3 22 93 10 19 68 78 10 15
84 80 49 99 21 83 98 100 27 4 76 97 100 100 100 100 100 100 100 100 100 10 93 4 0 0 0 83 50 48 100 100 98 22 93 99 98 90 100 100 100 76 19 8
91 100 100 100 77 100 100 100 32 47 99 100 100 100 100 100 100 100 100 96 100 9 100 15 70 1 94 25 99 100 28 88 100 100 100 100 100 72 23 37 5 31 2 9
100 100 85 96 100 100 100 95 40 100 100 100 100 100 100 100 100 100 100 100 100 92 76 0 97 2 68 10 80 68 100 100 82 100 99 16 31 8 21 26 31 5 1 64
100 100 100 100 100 86 98 35 10 100 100 100 100 100 100 100 100 100 100 100 100 0 76 45 38 16 19 73 27 100 100 100 100 88 0 0 0 8 83 3 100 100 94 100
100 100 83 100 99 94 100 23 100 100 100 100 100 100 100 100 100 100 94 64 4 0 34 99 16 100 99 92 95 100 100 86 18 32 7 13 85 78 99 100 100 100 87 47
100 100 98 91 95 78 94 13 98 100 100 100 100 100 100 100 99 23 7 48 4 0 9 60 84 100 100 100 100 100 37 40 0 0 9 50 48 94 100 100 100 100 74 48
100 100 100 100 100 100 100 27 17 99 100 58 62 100 100 87 11 2 78 72 2 4 4 26 100 100 100 100 100 100 7 11 1 2 17 19 96 100 100 100 100 100 12 12
99 100 100 100 100 100 100 100 60 60 100 100 86 93 100 4 10 95 9 5 91 1 4 79 100 100 100 100 100 13 10 21 8 71 77 5 85 99 81 30 100 38 8 8
100 100 100 100 100 100 100 100 99 100 88 92 47 65 50 84 82 15 3 5 96 7 84 100 100 100 97 100 99 8 8 34 53 5 13 53 95 3 85 100 45 82 35 9
100 100 100 100 95 100 100 100 100 82 64 100 50 89 49 2 4 6 3 9 78 15 100 100 100 100 100 100 18 3 67 34 5 4 37 100 82 6 79 29 91 0 15 1
100 100 100 100 100 100 100 100 100 100 100 100 100 88 50 0 0 23 7 3 9 98 100 100 100 100 100 86 7 6 62 30 82 68 93 100 71 100 70 97 100 0 36 5
100 100 100 100 100 100 100 100 100 100 100 100 100 100 100 66 66 100 34 90 91 100 100 100 100 100 100 3 94 0 88 99 59 100 100 2 76 66 40 88 55 94 100 45
100 100 100 100 100 100 100 100 100 100 100 100 100 97 81 62 100 90 98 100 100 100 100 100 100 100 55 37 18 97 100 94 100 96 4 100 100 83 36 98 100 100 100 100
100 100 100 100 97 100 100 100 100 100 100 100 100 100 93 100 99 100 100 100 100 100 100 100 100 100 2 4 90 100 94 9 20 0 98 77 43 39 2 30 100 100 100 100

GFSCGP_prec_cloud_045.txt.gz
Cloud_Cover
0 0 0 0 0 0 0 0 0 0 0 3 0 0 5 85 54 97 100 100 100 100 100 79 60 4 0 5 5 9 40 36 33 100 100 100 50 79 82 100 5 5 5 5
0 0 0 0 0 0 0 0 0 0 0 0 0 0 4 35 85 100 100 98 99 100 100 100 100 72 99 34 6 34 89 91 100 100 100 93 79 93 100 88 5 6 1 5
0 0 0 0 0 0 0 0 0 0 0 0 0 0 0 0 2 33 100 100 100 83 98 100 100 100 97 6 5 3 0 0 77 100 98 18 5 100 100 97 5 5 5 5
0 0 0 0 0 0 0 0 0 0 0 0 0 0 0 0 0 0 1 51 79 100 100 100 100 100 100 39 2 3 2 1 12 100 92 38 96 32 86 62 50 94 21 5
0 2 0 0 0 5 0 0 3 5 5 69 0 0 0 0 0 0 0 0 0 23 100 99 96 100 100 100 78 49 5 0 4 100 100 49 100 100 64 2 28 80 5 9
26 4 3 4 5 70 7 1 0 0 11 46 0 29 0 0 0 0 0 0 0 0 3 16 1 5 28 25 26 23 16 100 33 70 100 92 5 2 5 5 15 6 7 9
0 0 0 0 0 0 23 88 6 17 2 0 0 14 0 0 0 0 0 0 0 0 0 0 0 0 0 4 0 0 0 7 100 100 100 100 92 7 26 75 93 81 87 100
0 0 0 0 0 1 97 44 90 90 41 82 38 30 0 2 48 27 0 0 0 0 2 1 0 0 0 0 0 0 0 0 44 100 100 100 100 100 100 100 88 100 100 99
1 0 0 0 0 47 2 6 89 100 56 82 57 2 0 0 0 0 0 0 0 0 4 3 0 0 0 0 0 0 0 0 0 3 100 99 48 89 85 95 100 100 98 36
4 1 0 0 0 0 1 36 16 21 94 100 69 10 0 0 1 15 0 0 0 0 28 4 1 0 0 0 0 0 0 0 0 0 0 1 9 5 98 100 96 1 0 0
5 3 13 0 87 4 23 100 99 100 100 65 10 63 59 91 36 99 78 0 0 92 54 0 0 0 0 0 0 0 0 0 0 0 0 0 0 0 2 0 0 0 0 0
5 5 4 84 100 25 0 25 100 100 100 84 47 28 93 43 100 32 100 5 5 63 4 0 2 0 0 0 0 0 0 0 0 0 0 0 0 0 25 0 0 0 0 0
99 96 57 43 17 16 4 30 95 99 86 100 100 66 100 100 92 41 99 4 16 43 10 2 17 70 3 0 0 0 0 0 0 0 0 0 0 0 0 8 11 39 57 6
73 100 100 100 77 5 5 94 96 100 85 100 100 100 100 100 63 100 20 92 100 100 91 73 100 61 98 44 29 3 5 0 0 29 0 0 0 10 58 63 100 100 100 100
100 100 100 100 100 10 8 6 60 12 92 100 100 100 100 100 100 100 100 100 76 52 21 93 100 54 84 100 62 94 13 0 11 0 0 6 99 100 100 100 100 100 36 23
100 100 100 100 100 66 62 3 90 66 64 95 100 100 100 100 100 100 100 100 100 81 72 100 100 100 100 100 100 100 100 4 60 71 100 100 100 100 98 100 75 100 1 0
100 100 100 100 100 100 100 100 100 100 100 100 100 90 100 100 100 100 99 100 93 56 74 73 89 100 100 100 100 100 100 90 80 100 100 94 15 5 75 99 66 86 29 85
100 100 100 80 100 100 90 100 97 97 100 86 39 94 100 100 100 100 58 81 3 17 5 55 100 100 100 100 100 100 100 42 98 62 15 29 98 95 76 92 37 100 100 100
100 100 100 73 100 100 100 99 100 99 100 67 90 87 100 100 99 13 100 44 14 0 4 100 100 100 100 100 100 100 100 22 0 0 0 0 3 22 97 28 100 100 100 2
100 100 100 100 96 50 100 92 100 100 100 69 67 83 100 38 62 4 1 3 0 3 100 100 100 100 100 100 100 100 88 5 0 0 4 0 9 44 100 100 100 100 18 63
100 100 100 100 100 88 66 87 97 84 93 99 73 100 100 99 38 3 0 0 1 14 100 100 100 100 100 100 100 100 77 0 0 8 57 78 5 90 95 100 100 45 5 0
100 100 100 100 100 86 100 74 100 100 100 99 100 100 100 100 87 1 0 0 0 7 100 78 100 100 100 100 83 100 28 30 4 4 3 17 100 19 38 100 67 69 4 3
100 100 100 100 100 100 100 88 98 55 100 100 100 100 100 99 2 0 4 0 4 0 0 100 100 100 100 100 62 0 47 26 15 0 23 100 25 0 87 73 0 0 2 8
98 100 100 100 100 100 94 52 89 86 100 100 100 100 100 100 100 100 97 7 88 100 100 100 100 100 100 100 37 84 99 41 10 31 15 86 89 100 59 53 45 56 90 87
75 99 100 100 100 100 100 100 99 100 100 100 100 100 100 100 100 92 95 100 100 100 100 100 100 100 98 100 68 100 83 3 0 86 96 8 32 10 100 100 100 97 100 100
95 100 100 100 100 100 100 100 100 100 100 100 100 100 99 100 100 100 100 100 100 100 100 100 100 100 100 100 100 42 38 0 67 96 63 100 93 100 63 56 100 100 100 100

GFSCGP_prec_cloud_048.txt.gz
Cloud_Cover
0 0 0 0 0 0 0 0 0 0 0 0 0 0 0 85 100 100 100 100 100 100 100 100 100 100 100 100 95 97 6 3 95 60 71 99 100 100 69 49 82 100 100 56
0 0 0 0 0 0 0 0 0 0 0 0 0 0 0 0 2 57 93 88 29 100 100 100 100 100 100 100 74 91 84 5 5 96 100 100 100 95 98 71 88 56 8 85
0 0 0 0 0 0 0 0 0 0 0 0 0 0 0 0 0 0 0 1 0 70 100 100 100 100 100 97 99 62 13 0 0 4 14 40 95 88 82 100 22 7 51 50
0 0 0 0 0 0 0 0 0 0 0 0 0 0 0 0 0 0 0 0 0 0 9 100 100 61 100 100 100 47 14 3 0 0 0 22 100 3 33 63 3 3 92 86
0 0 0 0 0 0 0 0 0 0 0 0 0 1 0 0 0 0 0 0 0 0 0 0 86 100 32 70 92 85 12 5 5 5 7 92 100 94 5 5 50 8 55 19
2 0 0 0 0 0 0 0 0 0 0 0 0 0 0 0 0 0 0 0 0 0 0 0 0 80 100 44 7 24 5 5 68 100 100 100 100 100 84 5 55 62 20 19
1 0 0 0 0 0 0 1 1 4 2 2 0 0 0 0 0 0 0 0 0 0 0 0 0 0 22 59 4 2 5 50 100 100 100 100 100 100 100 67 6 17 26 42
5 0 0 0 0 0 0 0 4 53 3 4 17 1 0 0 0 0 0 0 0 0 0 0 0 0 0 0 0 0 0 5 6 90 100 100 100 100 100 6 100 82 54 99
3 0 0 0 0 0 0 0 0 5 5 86 3 0 0 0 0 0 0 0 0 0 0 0 0 0 0 0 0 0 0 0 0 0 23 75 2 27 6 41 100 100 100 100
2 1 0 0 0 0 85 4 19 41 66 63 32 4 4 0 0 0 0 0 0 0 0 0 0 0 0 0 0 0 0 0 0 0 0 0 0 0 2 9 28 100 48 73
0 0 0 0 1 4 23 55 92 72 86 90 85 6 5 46 55 2 0 0 0 0 0 0 0 0 0 0 0 0 0 0 0 0 0 0 0 0 15 9 8 35 12 5
3 5 9 35 18 84 97 8 58 99 100 100 100 20 44 2 5 5 0 0 0 0 0 0 0 0 0 0 0 0 0 0 0 0 0 0 2 13 14 15 7 1 2 2
5 7 76 98 87 88 100 10 100 96 10 36 97 5 0 5 5 2 0 0 0 0 0 0 0 2 0 0 0 0 0 0 0 0 0 7 35 20 10 4 6 25 1 0
10 50 99 76 100 99 100 28 5 100 96 46 73 5 5 2 0 0 4 12 100 4 0 16 1 2 0 0 0 0 1 0 0 0 0 32 73 46 29 38 58 0 18 82
69 100 93 28 100 100 100 71 5 15 14 25 4 4 0 0 40 99 100 100 100 49 1 98 4 36 3 0 0 8 100 68 1 27 31 44 54 12 16 39 50 100 33 88
88 99 100 99 51 96 100 100 100 11 5 5 5 5 2 71 100 100 100 100 100 100 27 34 4 1 1 29 48 100 100 100 99 100 30 20 6 0 36 97 100 100 92 100
98 100 100 100 100 52 86 96 100 100 100 92 6 2 5 73 100 100 100 100 100 79 100 98 100 100 100 100 100 100 100 100 100 100 15 25 36 76 100 100 100 100 84 6
70 100 100 100 100 61 14 53 100 100 100 95 95 20 5 90 100 100 100 100 100 100 82 100 100 100 100 100 100 100 100 100 100 82 15 97 100 100 100 100 100 3 0 0
37 99 100 100 100 100 100 98 100 100 100 100 100 98 42 64 100 100 100 100 100 100 100 100 100 100 100 100 100 100 100 100 100 100 100 100 100 100 100 61 1 7 80 100
74 100 100 100 100 88 95 34 66 74 97 100 100 51 81 100 100 100 99 100 100 100 100 100 100 100 100 100 100 100 100 100 100 100 100 100 100 96 0 0 51 56 100 63
96 100 100 100 100 100 35 92 10 61 43 75 63 60 100 100 100 100 98 100 90 100 90 100 100 100 100 100 100 100 100 100 61 57 48 4 0 0 7 98 100 100 53 52
5 99 100 100 100 100 100 97 82 29 6 34 100 64 100 100 100 100 100 100 100 100 100 100 100 100 100 100 100 100 100 100 69 13 79 8 26 100 100 100 100 100 26 39
41 76 100 100 100 100 100 99 98 100 52 92 100 100 100 100 100 100 100 100 100 100 100 100 100 100 100 100 100 100 76 98 91 100 79 0 0 2 100 100 67 34 23 82
82 99 100 100 100 100 100 97 100 100 100 100 100 100 100 100 100 100 100 100 100 100 100 100 100 100 100 99 99 100 100 100 100 58 29 95 0 1 100 84 1 14 37 93
100 100 100 100 100 100 100 100 100 100 89 100 100 100 100 100 100 100 100 100 100 100 100 100 100 100 100 100 100 100 100 100 100 94 2 12 17 28 100 94 94 18 86 23
100 89 100 100 100 100 100 51 96 62 100 100 100 100 100 100 100 100 100 100 100 100 100 98 100 100 100 100 100 100 86 100 44 48 19 42 86 52 100 100 100 100 92 100